Tracking 29892 objects as of 21-Nov-2024
HD Live streaming from Space Station
objects crossing your sky now

STARLINK-30615

Track STARLINK-30615 now!
10-day predictions
STARLINK-30615 is classified as:


NORAD ID: 58092
Int'l Code: 2023-160T
Perigee: 565.2 km
Apogee: 567.2 km
Inclination: 43.0 °
Period: 95.8 minutes
Semi major axis: 6937 km
RCS: Unknown
Launch date: October 18, 2023
Source: United States (US)
Launch site: AIR FORCE EASTERN TEST RANGE (AFETR)
Your satellite tracking list
Your tracking list is empty




NASA's NSSDC Master Catalog

Two Line Element Set (TLE):
1 58092U 23160T   24325.45283368  .00004384  00000-0  33930-3 0  9991
2 58092  43.0004 136.8434 0001449 268.6921  91.3755 15.02545964 61589
Source of the keplerian elements: AFSPC